Total_Precipitation_Accumulation
0.18 0.23 0.31 0.33 0.27 0.27 0.29 0.32 0.48 0.46 0.59 0.85 0.93 0.84 0.87 0.91 0.70 0.63 0.72 0.69 0.63 0.74 0.92 1.01 1.02 1.03 0.98 1.02 1.07 1.20 1.44 1.58 1.61 1.59 1.52 1.43 1.32 1.25 1.20 1.22 1.23 1.29 1.41 1.50
0.20 0.26 0.32 0.33 0.28 0.23 0.21 0.22 0.29 0.36 0.57 0.67 0.65 0.72 0.74 0.71 0.69 0.71 0.81 0.77 0.71 0.72 0.79 0.95 1.02 1.07 1.12 1.21 1.25 1.30 1.31 1.36 1.48 1.56 1.54 1.47 1.32 1.25 1.29 1.30 1.28 1.27 1.28 1.38
0.31 0.30 0.37 0.42 0.33 0.27 0.24 0.22 0.29 0.48 0.70 0.68 0.65 0.71 0.66 0.59 0.61 0.76 0.82 0.73 0.69 0.73 0.76 0.83 0.87 0.96 1.19 1.22 1.19 1.21 1.27 1.35 1.45 1.50 1.48 1.42 1.27 1.25 1.28 1.29 1.32 1.33 1.31 1.34
0.41 0.53 0.67 0.45 0.27 0.26 0.30 0.29 0.30 0.42 0.53 0.59 0.55 0.59 0.60 0.55 0.55 0.58 0.64 0.62 0.63 0.70 0.78 0.80 0.76 0.75 0.86 0.99 1.11 1.17 1.22 1.30 1.38 1.42 1.50 1.55 1.46 1.35 1.37 1.39 1.35 1.38 1.38 1.36
0.56 0.71 0.59 0.38 0.34 0.36 0.41 0.46 0.39 0.42 0.48 0.56 0.59 0.60 0.70 0.62 0.57 0.53 0.51 0.55 0.67 0.79 0.77 0.76 0.76 0.76 0.86 0.99 1.11 1.24 1.30 1.33 1.34 1.42 1.57 1.62 1.50 1.46 1.49 1.46 1.37 1.35 1.34 1.30
0.67 0.85 0.80 0.59 0.43 0.38 0.49 0.88 0.62 0.50 0.51 0.60 0.66 0.76 0.86 0.68 0.62 0.59 0.59 0.64 0.63 0.64 0.63 0.68 0.80 0.89 0.97 1.12 1.29 1.36 1.37 1.43 1.50 1.52 1.63 1.73 1.76 1.72 1.65 1.60 1.52 1.48 1.41 1.37
0.78 0.94 0.81 0.58 0.47 0.53 0.93 1.16 0.78 0.66 0.63 0.68 0.79 0.79 0.76 0.69 0.61 0.59 0.62 0.65 0.66 0.71 0.74 0.77 0.81 0.98 1.18 1.27 1.35 1.38 1.39 1.41 1.58 1.66 1.77 1.94 2.11 2.02 1.96 1.89 1.86 1.80 1.72 1.64
1.05 1.21 1.19 0.71 0.60 0.89 1.11 0.90 0.84 0.83 0.81 0.78 0.71 0.65 0.64 0.68 0.64 0.59 0.61 0.72 0.78 0.89 0.93 0.85 0.85 0.99 1.17 1.27 1.32 1.45 1.49 1.54 1.60 1.75 1.82 1.98 2.34 2.32 2.33 2.33 2.18 2.10 2.02 1.95
1.34 1.34 1.07 0.95 1.02 1.05 1.09 0.98 0.92 0.77 0.70 0.68 0.69 0.68 0.72 0.81 0.81 0.72 0.66 0.73 0.79 0.92 1.00 1.02 1.09 1.21 1.37 1.42 1.48 1.57 1.69 1.81 1.88 1.96 2.10 2.18 2.32 2.37 2.41 2.39 2.27 2.15 2.04 1.89
1.50 1.39 1.26 1.13 1.03 1.08 1.23 1.12 0.92 0.78 0.73 0.74 0.74 0.68 0.66 0.70 0.76 0.78 0.75 0.82 0.90 0.98 1.17 1.28 1.32 1.41 1.53 1.64 1.74 1.85 1.98 2.07 2.12 2.16 2.17 2.21 2.34 2.35 2.36 2.36 2.27 2.20 2.14 2.02
1.62 1.56 1.54 1.33 1.04 0.97 1.00 0.93 0.81 0.81 0.79 0.80 0.84 0.79 0.72 0.68 0.70 0.77 0.89 0.99 1.06 1.17 1.29 1.32 1.40 1.49 1.60 1.79 1.98 2.06 2.07 2.07 2.06 2.11 2.26 2.32 2.29 2.28 2.34 2.40 2.37 2.34 2.29 2.31
1.79 1.57 1.54 1.44 1.15 1.00 0.88 0.79 0.77 0.91 0.95 0.87 0.88 0.90 0.85 0.83 0.84 0.88 0.97 1.10 1.21 1.31 1.40 1.42 1.55 1.71 1.82 1.99 2.18 2.35 2.31 2.22 2.23 2.26 2.34 2.35 2.30 2.24 2.29 2.24 2.18 2.12 2.15 2.18
1.51 1.36 1.31 1.30 1.24 1.09 0.90 0.84 0.82 0.97 1.04 1.03 0.97 0.94 0.96 1.00 0.99 0.96 1.00 1.11 1.21 1.31 1.42 1.45 1.53 1.71 1.88 2.09 2.23 2.37 2.35 2.29 2.35 2.45 2.53 2.50 2.47 2.42 2.44 2.33 2.17 2.01 2.01 2.09
1.43 1.42 1.44 1.36 1.32 1.19 1.04 1.04 1.09 1.21 1.20 1.20 1.19 1.12 1.12 1.20 1.15 1.13 1.16 1.20 1.22 1.35 1.40 1.51 1.62 1.70 1.79 1.99 2.18 2.28 2.30 2.33 2.32 2.34 2.38 2.38 2.42 2.45 2.45 2.33 2.17 2.00 1.90 1.91
1.46 1.52 1.59 1.48 1.36 1.28 1.14 1.10 1.19 1.26 1.26 1.25 1.24 1.31 1.47 1.53 1.43 1.32 1.28 1.26 1.31 1.43 1.40 1.51 1.69 1.83 1.93 2.08 2.17 2.20 2.20 2.15 2.10 2.14 2.18 2.27 2.31 2.27 2.21 2.15 2.05 1.92 1.76 1.76
1.36 1.41 1.51 1.55 1.51 1.43 1.27 1.27 1.30 1.19 1.20 1.32 1.37 1.41 1.44 1.49 1.55 1.49 1.35 1.29 1.40 1.45 1.43 1.45 1.57 1.74 1.92 2.06 2.08 2.09 2.10 2.13 2.07 1.98 1.96 2.02 2.07 2.05 2.00 1.99 1.99 1.93 1.75 1.71
1.52 1.59 1.62 1.70 1.73 1.52 1.43 1.39 1.34 1.27 1.20 1.32 1.40 1.39 1.36 1.40 1.56 1.67 1.60 1.48 1.45 1.46 1.53 1.59 1.56 1.66 1.85 2.09 2.16 2.06 1.95 1.91 1.99 1.92 1.85 1.89 1.97 2.00 1.98 1.99 1.94 1.84 1.70 1.64
1.56 1.53 1.57 1.68 1.79 1.65 1.60 1.54 1.45 1.48 1.45 1.48 1.55 1.46 1.41 1.45 1.53 1.60 1.63 1.53 1.50 1.46 1.50 1.65 1.68 1.67 1.76 2.09 2.31 2.20 2.04 1.94 1.82 1.80 1.81 1.83 1.86 1.90 1.88 1.88 1.84 1.71 1.58 1.51
1.57 1.55 1.55 1.64 1.65 1.64 1.69 1.69 1.54 1.46 1.47 1.48 1.58 1.51 1.50 1.53 1.51 1.47 1.50 1.52 1.54 1.53 1.55 1.63 1.76 1.67 1.70 1.88 2.10 2.05 1.93 1.84 1.75 1.73 1.81 1.89 1.85 1.79 1.75 1.71 1.70 1.64 1.55 1.50
1.63 1.61 1.61 1.61 1.61 1.60 1.58 1.60 1.57 1.53 1.52 1.52 1.47 1.42 1.44 1.41 1.40 1.36 1.40 1.46 1.46 1.53 1.57 1.58 1.46 1.45 1.58 1.78 1.93 1.85 1.85 1.80 1.69 1.63 1.68 1.77 1.76 1.68 1.56 1.49 1.49 1.48 1.37 1.28
1.69 1.64 1.60 1.59 1.60 1.54 1.52 1.59 1.65 1.63 1.63 1.56 1.44 1.40 1.43 1.42 1.38 1.39 1.47 1.53 1.46 1.46 1.48 1.57 1.39 1.32 1.36 1.64 1.82 1.69 1.70 1.70 1.66 1.63 1.63 1.68 1.65 1.56 1.46 1.41 1.36 1.31 1.26 1.20
1.62 1.61 1.58 1.61 1.61 1.58 1.44 1.46 1.56 1.55 1.52 1.47 1.40 1.38 1.45 1.51 1.45 1.38 1.34 1.45 1.47 1.47 1.33 1.36 1.29 1.31 1.34 1.46 1.53 1.63 1.64 1.65 1.66 1.62 1.57 1.56 1.59 1.52 1.40 1.39 1.39 1.34 1.26 1.22
1.46 1.43 1.45 1.51 1.58 1.53 1.33 1.31 1.34 1.38 1.34 1.31 1.37 1.46 1.53 1.53 1.53 1.52 1.39 1.26 1.26 1.32 1.19 1.15 1.17 1.19 1.19 1.15 1.23 1.41 1.47 1.48 1.48 1.50 1.47 1.43 1.43 1.36 1.27 1.24 1.27 1.24 1.19 1.15
1.38 1.31 1.30 1.38 1.40 1.41 1.43 1.37 1.26 1.28 1.27 1.30 1.36 1.49 1.61 1.56 1.46 1.33 1.20 1.23 1.26 1.17 1.06 1.06 1.01 0.95 0.97 0.97 1.13 1.30 1.37 1.37 1.34 1.37 1.34 1.31 1.28 1.23 1.23 1.23 1.18 1.10 1.06 1.00
1.36 1.28 1.26 1.34 1.42 1.48 1.48 1.45 1.36 1.33 1.34 1.35 1.37 1.44 1.50 1.55 1.54 1.35 1.17 1.15 1.27 1.15 1.01 1.02 0.97 0.91 0.85 0.92 1.05 1.20 1.30 1.30 1.31 1.32 1.25 1.15 1.10 1.09 1.12 1.15 1.14 1.09 1.03 0.91
1.32 1.30 1.35 1.40 1.46 1.49 1.52 1.55 1.56 1.51 1.54 1.55 1.50 1.47 1.46 1.44 1.44 1.38 1.29 1.21 1.23 1.15 0.99 0.94 0.91 0.88 0.87 0.94 1.02 1.12 1.20 1.23 1.22 1.22 1.19 1.16 1.12 1.09 1.11 1.08 1.04 1.00 0.91 0.84
1.28 1.31 1.40 1.46 1.46 1.42 1.50 1.66 1.80 1.82 1.85 1.85 1.84 1.75 1.63 1.51 1.42 1.35 1.30 1.28 1.26 1.17 1.07 1.00 0.96 0.94 0.94 0.98 1.06 1.16 1.23 1.26 1.22 1.15 1.15 1.16 1.16 1.10 1.05 1.01 0.95 0.89 0.82 0.81